TimeAST,TemperatureF,Dew PointF,Humidity,Sea Level PressureIn,VisibilityMPH,Wind Direction,Wind SpeedMPH,Gust SpeedMPH,PrecipitationIn,Events,Conditions,WindDirDegrees,DateUTC
12:00 AM,23.0,19.4,86,30.07,15.0,North,2.3,-,N/A,Snow,Light Snow,360,2013-01-20 04:00:00
1:00 AM,23.0,19.4,86,30.08,15.0,Calm,Calm,-,N/A,,Overcast,0,2013-01-20 05:00:00
2:00 AM,23,20,81,30.09,15,NNE,3.5,,,,Partly Cloudy,20,2013-01-20 06:00:00
2:00 AM,23.0,19.4,86,30.09,15.0,NNE,5.8,-,N/A,,Overcast,30,2013-01-20 06:00:00
3:00 AM,23.0,19.4,86,30.08,15.0,East,4.6,-,N/A,,Overcast,100,2013-01-20 07:00:00
4:00 AM,23.0,19.4,86,30.07,15.0,East,4.6,-,N/A,,Overcast,90,2013-01-20 08:00:00
4:36 AM,23.0,19.4,86,30.06,3.0,East,4.6,-,N/A,Snow,Light Snow,90,2013-01-20 08:36:00
5:00 AM,23.0,21.2,93,30.05,3.0,East,8.1,-,N/A,Snow,Light Snow,80,2013-01-20 09:00:00
6:00 AM,23.0,21.2,93,30.03,2.0,East,9.2,-,N/A,Snow,Light Snow,90,2013-01-20 10:00:00
7:00 AM,23.0,21.2,93,29.99,2.0,East,9.2,-,N/A,Snow,Light Snow,100,2013-01-20 11:00:00
7:40 AM,23.0,21.2,93,29.98,1.0,ESE,6.9,-,N/A,Snow,Light Snow,110,2013-01-20 11:40:00
8:00 AM,23,22,96,29.96,1,ESE,6.9,,,Snow,Light Snow,110,2013-01-20 12:00:00
8:00 AM,23.0,23.0,100,29.96,0.6,ESE,8.1,-,N/A,Snow,Light Snow,110,2013-01-20 12:00:00
8:24 AM,24.8,23.0,93,29.94,1.5,ESE,9.2,-,N/A,Snow,Light Snow,120,2013-01-20 12:24:00
8:38 AM,24.8,24.8,100,29.93,6.0,ESE,13.8,19.6,N/A,Snow,Light Snow,120,2013-01-20 12:38:00
9:00 AM,26.6,24.8,93,29.91,15.0,ESE,12.7,-,N/A,Snow,Light Snow,120,2013-01-20 13:00:00
9:38 AM,26.6,24.8,93,29.88,15.0,SE,15.0,-,N/A,Snow,Low Drifting Snow,130,2013-01-20 13:38:00
10:00 AM,26.6,24.8,93,29.85,15.0,ESE,16.1,21.9,N/A,Snow,Low Drifting Snow,120,2013-01-20 14:00:00
11:00 AM,30.2,28.4,93,29.77,15.0,SE,17.3,25.3,N/A,Snow,Low Drifting Snow,130,2013-01-20 15:00:00
12:00 PM,33.8,32.0,93,29.68,12.0,SE,21.9,32.2,N/A,Snow,Low Drifting Snow,140,2013-01-20 16:00:00
12:16 PM,33.8,32.0,93,29.65,12.0,SE,23.0,33.4,N/A,,Overcast,140,2013-01-20 16:16:00
1:00 PM,35.6,33.8,93,29.59,8.0,SSE,23.0,34.5,N/A,,Overcast,150,2013-01-20 17:00:00
2:00 PM,36,35,96,29.52,7,SSE,18.4,,,,Partly Cloudy,150,2013-01-20 18:00:00
2:00 PM,35.6,35.6,100,29.52,8.0,SSE,19.6,-,N/A,,Overcast,150,2013-01-20 18:00:00
2:30 PM,37.4,37.4,100,29.47,10.0,SSE,20.7,-,N/A,,Mostly Cloudy,150,2013-01-20 18:30:00
3:00 PM,39.2,37.4,93,29.45,12.0,SSE,21.9,-,N/A,,Mostly Cloudy,160,2013-01-20 19:00:00
4:00 PM,41.0,37.4,87,29.40,15.0,South,24.2,31.1,N/A,,Mostly Cloudy,180,2013-01-20 20:00:00
5:00 PM,42.8,35.6,76,29.38,15.0,SSW,19.6,27.6,N/A,,Mostly Cloudy,200,2013-01-20 21:00:00
5:29 PM,41.0,35.6,81,29.38,15.0,SSW,18.4,27.6,N/A,,Mostly Cloudy,200,2013-01-20 21:29:00
6:00 PM,41.0,37.4,87,29.39,15.0,SSW,16.1,23.0,N/A,,Mostly Cloudy,210,2013-01-20 22:00:00
7:00 PM,41.0,33.8,76,29.39,15.0,SW,18.4,29.9,N/A,,Mostly Cloudy,220,2013-01-20 23:00:00
8:00 PM,41,35,71,29.42,15,WSW,15.0,,,,Mostly Cloudy,250,2013-01-21 00:00:00
8:00 PM,41.0,33.8,76,29.42,15.0,WSW,16.1,-,N/A,,Mostly Cloudy,250,2013-01-21 00:00:00
9:00 PM,37.4,33.8,87,29.41,15.0,SW,6.9,-,N/A,,Overcast,230,2013-01-21 01:00:00
9:23 PM,39.2,35.6,87,29.42,15.0,WSW,9.2,-,N/A,Rain,Light Rain Showers,240,2013-01-21 01:23:00
9:58 PM,39.2,33.8,81,29.42,15.0,WSW,10.4,-,N/A,,Overcast,240,2013-01-21 01:58:00
10:00 PM,39.2,33.8,81,29.42,15.0,WSW,10.4,-,N/A,,Overcast,240,2013-01-21 02:00:00
11:00 PM,35.6,26.6,70,29.43,15.0,West,11.5,24.2,N/A,,Mostly Cloudy,270,2013-01-21 03:00:00